TimeEDT,TemperatureF,Dew PointF,Humidity,Sea Level PressureIn,VisibilityMPH,Wind Direction,Wind SpeedMPH,Gust SpeedMPH,PrecipitationIn,Events,Conditions,WindDirDegrees,DateUTC
12:15 AM,68.0,62.6,83,29.79,7.0,NNE,9.2,-,N/A,,Scattered Clouds,20,2012-10-27 04:15:00
12:35 AM,68.0,62.6,83,29.78,10.0,North,9.2,17.3,N/A,,Clear,10,2012-10-27 04:35:00
12:55 AM,68.0,62.6,83,29.77,7.0,North,8.1,17.3,N/A,,Scattered Clouds,360,2012-10-27 04:55:00
1:15 AM,68.0,62.6,83,29.76,7.0,North,9.2,18.4,N/A,,Scattered Clouds,360,2012-10-27 05:15:00
1:35 AM,69.8,62.6,78,29.75,10.0,NNE,15.0,21.9,N/A,,Overcast,20,2012-10-27 05:35:00
1:55 AM,69.8,62.6,78,29.75,10.0,NNE,9.2,18.4,N/A,,Overcast,20,2012-10-27 05:55:00
2:15 AM,69.8,62.6,78,29.74,10.0,NNE,10.4,20.7,N/A,,Mostly Cloudy,20,2012-10-27 06:15:00
2:35 AM,69.8,62.6,78,29.72,10.0,NNE,12.7,18.4,N/A,,Mostly Cloudy,20,2012-10-27 06:35:00
2:55 AM,69.8,62.6,78,29.71,7.0,NE,13.8,21.9,N/A,,Mostly Cloudy,40,2012-10-27 06:55:00
3:15 AM,69.8,62.6,78,29.69,10.0,NNE,9.2,-,N/A,,Scattered Clouds,20,2012-10-27 07:15:00
3:55 AM,69.8,62.6,78,29.68,10.0,NNE,11.5,17.3,N/A,,Clear,20,2012-10-27 07:55:00
4:15 AM,69.8,62.6,78,29.68,10.0,North,9.2,17.3,N/A,Rain,Light Rain,10,2012-10-27 08:15:00
4:35 AM,68.0,62.6,83,29.67,10.0,North,12.7,18.4,N/A,Rain,Rain,360,2012-10-27 08:35:00
4:55 AM,68.0,62.6,83,29.67,10.0,North,12.7,19.6,N/A,,Light Drizzle,360,2012-10-27 08:55:00
5:15 AM,68.0,62.6,83,29.67,10.0,North,11.5,18.4,N/A,,Light Drizzle,360,2012-10-27 09:15:00
5:35 AM,68.0,62.6,83,29.66,10.0,North,12.7,21.9,N/A,,Light Drizzle,10,2012-10-27 09:35:00
5:55 AM,69.8,62.6,78,29.66,10.0,NNE,12.7,21.9,N/A,,Mostly Cloudy,20,2012-10-27 09:55:00
6:15 AM,69.8,62.6,78,29.65,10.0,North,9.2,21.9,N/A,,Light Drizzle,360,2012-10-27 10:15:00
6:35 AM,69.8,62.6,78,29.66,10.0,North,11.5,18.4,N/A,,Light Drizzle,10,2012-10-27 10:35:00
6:55 AM,69.8,62.6,78,29.66,10.0,North,12.7,18.4,N/A,,Overcast,10,2012-10-27 10:55:00
7:15 AM,69.8,62.6,78,29.66,10.0,North,11.5,20.7,N/A,,Mostly Cloudy,360,2012-10-27 11:15:00
7:55 AM,68.0,62.6,83,29.66,10.0,North,12.7,18.4,N/A,Rain,Light Rain,360,2012-10-27 11:55:00
8:15 AM,68.0,62.6,83,29.67,10.0,NNE,10.4,18.4,N/A,Rain,Light Rain,20,2012-10-27 12:15:00
8:35 AM,68.0,62.6,83,29.67,10.0,North,10.4,21.9,0.01,Rain,Light Rain,10,2012-10-27 12:35:00
8:55 AM,68.0,62.6,83,29.67,10.0,North,9.2,16.1,0.02,Rain,Rain,10,2012-10-27 12:55:00
9:15 AM,66.2,62.6,88,29.68,10.0,North,11.5,18.4,0.02,Rain,Rain,10,2012-10-27 13:15:00
9:35 AM,66.2,62.6,88,29.67,10.0,North,10.4,16.1,0.03,Rain,Light Rain,10,2012-10-27 13:35:00
10:15 AM,66.2,62.6,88,29.67,10.0,North,13.8,20.7,0.01,Rain,Light Rain,360,2012-10-27 14:15:00
10:35 AM,66.2,62.6,88,29.67,10.0,North,11.5,16.1,0.01,Rain,Light Rain,360,2012-10-27 14:35:00
11:35 AM,68.0,62.6,83,29.65,7.0,North,12.7,20.7,N/A,,Scattered Clouds,10,2012-10-27 15:35:00
11:55 AM,68.0,62.6,83,29.64,7.0,North,12.7,20.7,N/A,,Mostly Cloudy,360,2012-10-27 15:55:00
12:15 PM,69.8,62.6,78,29.64,10.0,North,12.7,27.6,N/A,,Overcast,360,2012-10-27 16:15:00
12:35 PM,69.8,62.6,78,29.63,10.0,North,12.7,24.2,N/A,,Overcast,10,2012-10-27 16:35:00
12:55 PM,69.8,60.8,73,29.62,7.0,North,15.0,23.0,N/A,,Mostly Cloudy,360,2012-10-27 16:55:00
1:15 PM,69.8,60.8,73,29.62,7.0,North,15.0,26.5,N/A,,Mostly Cloudy,360,2012-10-27 17:15:00
1:35 PM,69.8,60.8,73,29.61,4.0,North,15.0,21.9,N/A,,Haze,10,2012-10-27 17:35:00
1:55 PM,69.8,60.8,73,29.61,10.0,North,12.7,24.2,N/A,,Mostly Cloudy,360,2012-10-27 17:55:00
2:15 PM,69.8,60.8,73,29.59,5.0,North,12.7,25.3,N/A,,Haze,360,2012-10-27 18:15:00
2:35 PM,69.8,60.8,73,29.58,7.0,North,13.8,26.5,N/A,,Scattered Clouds,10,2012-10-27 18:35:00
2:55 PM,69.8,60.8,73,29.58,10.0,North,12.7,19.6,N/A,,Scattered Clouds,350,2012-10-27 18:55:00
3:15 PM,69.8,60.8,73,29.58,7.0,North,12.7,24.2,N/A,,Scattered Clouds,360,2012-10-27 19:15:00
3:35 PM,69.8,60.8,73,29.58,7.0,North,15.0,19.6,N/A,,Mostly Cloudy,360,2012-10-27 19:35:00
3:55 PM,69.8,60.8,73,29.58,10.0,North,13.8,23.0,N/A,,Overcast,350,2012-10-27 19:55:00
4:15 PM,69.8,60.8,73,29.58,10.0,North,15.0,25.3,N/A,,Mostly Cloudy,360,2012-10-27 20:15:00
4:35 PM,69.8,60.8,73,29.58,10.0,North,12.7,21.9,N/A,,Scattered Clouds,360,2012-10-27 20:35:00
4:55 PM,69.8,59.0,68,29.57,10.0,North,13.8,28.8,N/A,,Scattered Clouds,10,2012-10-27 20:55:00
5:15 PM,69.8,59.0,68,29.57,10.0,North,12.7,23.0,N/A,,Scattered Clouds,360,2012-10-27 21:15:00
5:35 PM,69.8,59.0,68,29.58,10.0,North,13.8,21.9,N/A,,Scattered Clouds,360,2012-10-27 21:35:00
5:55 PM,69.8,59.0,68,29.58,10.0,North,11.5,21.9,N/A,,Clear,350,2012-10-27 21:55:00
6:15 PM,69.8,59.0,68,29.58,10.0,North,11.5,20.7,N/A,,Clear,350,2012-10-27 22:15:00
6:35 PM,69.8,59.0,68,29.58,10.0,North,11.5,28.8,N/A,,Clear,350,2012-10-27 22:35:00
6:55 PM,69.8,59.0,68,29.59,10.0,North,10.4,23.0,N/A,,Clear,360,2012-10-27 22:55:00
7:15 PM,68.0,59.0,73,29.59,10.0,North,16.1,23.0,N/A,,Clear,360,2012-10-27 23:15:00
7:35 PM,68.0,59.0,73,29.59,10.0,North,10.4,20.7,N/A,,Clear,360,2012-10-27 23:35:00
7:55 PM,68.0,59.0,73,29.59,10.0,North,11.5,23.0,N/A,,Clear,360,2012-10-27 23:55:00
8:15 PM,68.0,57.2,68,29.60,10.0,North,15.0,25.3,N/A,,Clear,360,2012-10-28 00:15:00
8:35 PM,68.0,57.2,68,29.60,10.0,North,12.7,19.6,N/A,,Clear,360,2012-10-28 00:35:00
8:55 PM,68.0,57.2,68,29.59,10.0,North,10.4,21.9,N/A,,Scattered Clouds,360,2012-10-28 00:55:00
9:15 PM,68.0,57.2,68,29.59,10.0,North,11.5,19.6,N/A,,Scattered Clouds,360,2012-10-28 01:15:00
9:35 PM,68.0,57.2,68,29.60,10.0,North,11.5,25.3,N/A,,Scattered Clouds,350,2012-10-28 01:35:00
9:55 PM,68.0,57.2,68,29.60,10.0,North,13.8,18.4,N/A,,Clear,360,2012-10-28 01:55:00
10:15 PM,68.0,57.2,68,29.61,10.0,North,12.7,23.0,N/A,,Scattered Clouds,350,2012-10-28 02:15:00
10:35 PM,68.0,57.2,68,29.60,10.0,North,17.3,28.8,N/A,,Clear,360,2012-10-28 02:35:00
10:55 PM,66.2,57.2,73,29.61,10.0,North,10.4,23.0,N/A,,Clear,350,2012-10-28 02:55:00
11:15 PM,66.2,57.2,73,29.61,10.0,North,9.2,19.6,N/A,,Clear,360,2012-10-28 03:15:00
11:35 PM,66.2,55.4,68,29.61,10.0,North,12.7,21.9,N/A,,Clear,360,2012-10-28 03:35:00